THOR ABLESTAR DEB, 480

Orbit data source: Space-Track

THOR ABLESTAR DEB, 480 is space debris in LEO originally from a launch on Thu, 29 Jun 1961 UTC launched from the Air Force Eastern Test Range (AFETR). Debris objects in space refer to the collection of defunct objects orbiting the Earth. Examples of debris include non-operational satellites, rocket bodies, and fragments generated from explosions, collisions, or faulty payload assembly.

Loading next visibility...
Identifier
480, 1961-015FS
Orbit
LEO
Country
Flag of USUS
Related business
Manufacturer
Unknown
Mission
Spacecraft
Bus & Motor
Unknown
Mass
Unknown
Launch date (UTC)
1961-06-29 (65 years ago)
Launch vehicle
Unknown
Launch site
Air Force Eastern Test Range (AFETR)
Object type
Payload
Rocket body
Debris
Shape & HBR
Unknown shape, 0.2 m
Radar Cross Section
Medium (>0.1 m² and <1 m²)

Expand to show TLE details & history
Last TLE update: 6 days ago

TLE from 6 days ago
0 THOR ABLESTAR DEB
1 00480U 61015FS  26155.27465139  .00001600  00000-0  49728-3 0  9991
2 00480  66.2362  96.3675 0072233 155.4060 205.0515 14.42263137352958
Epoch: 2026-06-04T06:35Z
TLE epoch observation values (Epoch: 2026-06-04T06:35:29.880Z)
Latitude
0.00006°
Longitude
104.77176°
Altitude
799.837 km
Speed
7.43 km/s
True Right ascension
06h 25m 28s
True Declination
0° 00' 00"
Sunlit
Object was in daylight at epoch
Visualization orbit readout
Latitude
Unknown
Longitude
Unknown
Altitude
Unknown
Speed
Unknown
Apparent Right ascension
Unknown
Apparent Declination
Unknown
Sunlit
N/A
Visualization observer readout
Local Sidereal Time
12:46:45
Azimuth
Unknown
Elevation
Unknown
Doppler factor
Unknown
Orbital elements
Apogee altitude
800.936 km
Perigee altitude
697.967 km
Semi-major axis
7,127.588 km
Eccentricity
0.00722
Inclination
66.2362°
RAAN
96.3675°
Arg. of periapsis
155.406°
True anomaly
204.70386°
Mean anomaly
205.0515°
Eccentric anomaly
204.8774°
Mean motion
3.60686 °/min
Orbital period
99.81 mins
BSTAR
0.00049728
Loading maneuver chart data...
Computing Atmospheric mass density...
Loading historical data...
Loading historical data...
Loading historical data...
Loading historical data...
Loading historical data...
Loading historical data...
Loading historical data...

Documentation

Showing up to 5 results
|